Dublin, Ireland

4:53 AM GMT on March 25, 2017 (GMT +0000)
Dublin

Weather History for 03969 - October, 2013

Change the Weather History Date:

Monday, October 28, 2013

  Actual Average Record
Temperature  
Mean Temperature 48 °F -  
Max Temperature 53 °F 50 °F - ()
Min Temperature 44 °F 40 °F - ()
Degree Days  
Heating Degree Days 16    
Moisture  
Dew Point 44 °F    
Average Humidity 83    
Maximum Humidity 100    
Minimum Humidity 60    
Precipitation  
Precipitation 0.00 in 0.08 in - ()
Sea Level Pressure  
Sea Level Pressure 29.21 in    
Wind  
Wind Speed 15 mph ()    
Max Wind Speed 25 mph    
Max Gust Speed -    
Visibility 6.4 miles    
Events Rain    
T = Trace of Precipitation, MM = Missing Value Source: Averaged Metar Reports

Daily Weather History Graph

Daily Weather History Graph

Search for Another Location

Airport or City:

Trip Planner

Search our weather history database for the weather conditions in past years. The results will help you decide how hot, cold, wet, or windy it might be!

Date:

Astronomy

Oct. 28, 2013 Rise Set
Actual Time 7:16 AM GMT 5:00 PM GMT
Civil Twilight 6:40 AM GMT 5:36 PM GMT
Nautical Twilight 5:59 AM GMT 6:17 PM GMT
Astronomical Twilight 5:18 AM GMT 6:58 PM GMT
Moon 12:05 AM GMT (10/28) 2:21 PM GMT (10/28)
Length of Visible Light 10h 56m
Length of Day
9h 43m
Waning Crescent, 36% of the Moon is Illuminated
Oct 28
Waning Crescent
Nov 3
New
Nov 10
First Quarter
Nov 17
Full
Nov 25
Last Quarter

Hourly Weather History & Observations

Time (GMT) Temp. Windchill Dew Point Humidity Pressure Visibility Wind Dir Wind Speed Gust Speed Precip Events Conditions
12:00 AM 50 °F - 45 °F 78% 29.06 in 22 mi SW 8.9 mph - -   Overcast
12:00 AM 50.0 °F - 44.6 °F 82% 29.06 in 6.2 mi SW 8.1 mph - N/A   Mostly Cloudy
12:30 AM 50.0 °F - 44.6 °F 82% 29.03 in 6.2 mi SSW 8.1 mph - N/A   Mostly Cloudy
1:00 AM 50.0 °F - 44.6 °F 82% 29.03 in 6.2 mi SW 10.4 mph - N/A   Mostly Cloudy
1:30 AM 50.0 °F - 44.6 °F 82% 29.00 in 6.2 mi SW 11.5 mph - N/A   Mostly Cloudy
2:00 AM 50.0 °F - 46.4 °F 87% 29.00 in 6.2 mi WSW 12.7 mph - N/A Rain Light Rain
2:30 AM 50.0 °F - 46.4 °F 87% 29.00 in 6.2 mi WSW 11.5 mph - N/A Rain Light Rain
3:00 AM 48.2 °F - 46.4 °F 93% 29.00 in 6.2 mi WSW 15.0 mph - N/A Rain Light Rain
3:30 AM 48.2 °F - 46.4 °F 93% 29.00 in 6.2 mi WSW 13.8 mph - N/A   Mostly Cloudy
4:00 AM 48.2 °F - 44.6 °F 87% 28.97 in 6.2 mi WSW 17.3 mph - N/A   Mostly Cloudy
4:30 AM 48.2 °F - 46.4 °F 93% 29.00 in 6.2 mi West 18.4 mph - N/A Rain Light Rain
5:00 AM 48.2 °F - 46.4 °F 93% 29.00 in 6.2 mi West 19.6 mph - N/A Rain Light Rain
5:30 AM 48.2 °F - 46.4 °F 93% 29.03 in 5.6 mi West 18.4 mph - N/A Rain Light Rain
6:00 AM 46.4 °F 39.8 °F 46.4 °F 100% 29.03 in 6.2 mi West 16.1 mph - N/A Rain Light Rain
6:30 AM 46.4 °F 39.5 °F 44.6 °F 93% 29.03 in 6.2 mi West 17.3 mph - N/A Rain Light Rain
7:00 AM 46.4 °F 39.0 °F 44.6 °F 93% 29.06 in 6.2 mi West 19.6 mph - N/A   Mostly Cloudy
7:30 AM 46.4 °F 38.7 °F 42.8 °F 87% 29.06 in 6.2 mi West 20.7 mph - N/A   Mostly Cloudy
8:00 AM 46.4 °F 39.0 °F 42.8 °F 87% 29.09 in 6.2 mi West 19.6 mph - N/A   Mostly Cloudy
8:30 AM 46.4 °F 39.2 °F 42.8 °F 87% 29.12 in 6.2 mi WSW 18.4 mph - N/A   Mostly Cloudy
9:00 AM 46.4 °F 39.0 °F 44.6 °F 93% 29.15 in 6.2 mi WSW 19.6 mph - N/A   Mostly Cloudy
9:30 AM 46.4 °F 39.2 °F 42.8 °F 87% 29.15 in 6.2 mi West 18.4 mph - N/A   Scattered Clouds
10:00 AM 48.2 °F - 44.6 °F 87% 29.18 in 6.2 mi WSW 17.3 mph - N/A   Partly Cloudy
10:30 AM 50.0 °F - 42.8 °F 76% 29.18 in 6.2 mi West 21.9 mph - N/A   Partly Cloudy
11:00 AM 51.8 °F - 42.8 °F 71% 29.21 in 6.2 mi West 24.2 mph - N/A   Partly Cloudy
11:30 AM 51.8 °F - 42.8 °F 71% 29.21 in 6.2 mi West 24.2 mph - N/A   Partly Cloudy
12:00 PM 52 °F - 42 °F 60% 29.25 in 22 mi West 22.4 mph - -   Partly Cloudy
12:00 PM 51.8 °F - 42.8 °F 71% 29.24 in 6.2 mi West 23.0 mph - N/A   Scattered Clouds
12:30 PM 53.6 °F - 42.8 °F 67% 29.24 in 6.2 mi West 21.9 mph - N/A   Scattered Clouds
1:00 PM 51.8 °F - 41.0 °F 67% 29.24 in 6.2 mi West 24.2 mph - N/A   Scattered Clouds
1:30 PM 53.6 °F - 42.8 °F 67% 29.27 in 6.2 mi WSW 21.9 mph - N/A   Scattered Clouds
2:00 PM 53.6 °F - 41.0 °F 62% 29.27 in 6.2 mi WSW 20.7 mph - N/A   Scattered Clouds
2:30 PM 50.0 °F - 41.0 °F 71% 29.27 in 6.2 mi WSW 24.2 mph - N/A Rain Light Rain Showers
3:00 PM 51.8 °F - 41.0 °F 67% 29.27 in 6.2 mi WSW 20.7 mph - N/A   Scattered Clouds
3:30 PM 51.8 °F - 41.0 °F 67% 29.30 in 6.2 mi WSW 20.7 mph - N/A   Scattered Clouds
4:00 PM 50.0 °F - 41.0 °F 71% 29.30 in 6.2 mi WSW 19.6 mph - N/A   Scattered Clouds
4:30 PM 48.2 °F - 41.0 °F 76% 29.30 in 6.2 mi WSW 18.4 mph - N/A   Scattered Clouds
5:00 PM 48.2 °F - 42.8 °F 82% 29.33 in 6.2 mi WSW 18.4 mph - N/A   Scattered Clouds
5:30 PM 46.4 °F 39.2 °F 42.8 °F 87% 29.33 in 6.2 mi WSW 18.4 mph - N/A   Scattered Clouds
6:00 PM 47 °F - 44 °F 84% 29.37 in 19 mi West 17.9 mph - -   Partly Cloudy
6:00 PM 46.4 °F 39.5 °F 44.6 °F 93% 29.36 in 6.2 mi WSW 17.3 mph - N/A   Partly Cloudy
6:30 PM 46.4 °F 39.2 °F 42.8 °F 87% 29.36 in 6.2 mi West 18.4 mph - N/A   Partly Cloudy
7:00 PM 48.2 °F - 44.6 °F 87% 29.39 in 6.2 mi West 18.4 mph - N/A   Scattered Clouds
7:30 PM 48.2 °F - 42.8 °F 82% 29.39 in 6.2 mi West 23.0 mph - N/A   Scattered Clouds
8:00 PM 48.2 °F - 42.8 °F 82% 29.42 in 6.2 mi West 24.2 mph - N/A   Partly Cloudy
8:30 PM 48.2 °F - 42.8 °F 82% 29.42 in 6.2 mi West 25.3 mph - N/A   Scattered Clouds
9:00 PM 46.4 °F 37.9 °F 42.8 °F 87% 29.44 in 6.2 mi West 25.3 mph - N/A   Partly Cloudy
9:30 PM 46.4 °F 38.1 °F 42.8 °F 87% 29.44 in 6.2 mi West 24.2 mph - N/A Rain Light Rain Showers
10:00 PM 46.4 °F 38.3 °F 42.8 °F 87% 29.47 in 6.2 mi West 23.0 mph - N/A Rain Light Rain Showers
10:30 PM 46.4 °F 38.5 °F 42.8 °F 87% 29.50 in 6.2 mi West 21.9 mph - N/A Rain Light Rain Showers
11:00 PM 44.6 °F 36.9 °F 42.8 °F 93% 29.53 in 6.2 mi West 18.4 mph - N/A   Mostly Cloudy
11:30 PM 44.6 °F 36.6 °F 42.8 °F 93% 29.53 in 6.2 mi West 19.6 mph - N/A   Mostly Cloudy